Regional Weather Roundup
Issued by NWS Newport/Morehead, NC

Current Version | Previous Version | Text Only | Print | Product List | Glossary Off
Versions: 1 2 3 4 5 6 7 8 9 10 11 12 13 14 15 16 17 18 19 20 21 22 23 24 25 26 27 28 29 30 31 32 33 34 35 36 37 38 39 40 41 42 43 44 45 46 47 48 49 50
000 ASUS42 KMHX 251313 RWRMHX WEATHER ROUNDUP FOR EASTERN NORTH CAROLINA NATIONAL WEATHER SERVICE NEWPORT/MOREHEAD CITY NC 800 AM EST SAT FEB 25 2017 NOTE: "FAIR" INDICATES FEW OR NO CLOUDS BELOW 12,000 FEET WITH NO SIGNIFICANT WEATHER AND/OR OBSTRUCTIONS TO VISIBILITY NCZ015>017-031-032-045>047-102-103-251400- NORTH COAST CITY SKY/WX TMP DP RH WIND PRES REMARKS EDENTON FOG 56 56 100 CALM 29.80S VSB 1/4 ELIZABETH CITY SUNNY 56 56 100 CALM 29.79S KITTY HAWK NOT AVBL MANTEO SUNNY 56 56 100 CALM 29.80R $$ NCZ045>047-081-094-103-104-251400- CENTRAL COAST CITY SKY/WX TMP DP RH WIND PRES REMARKS FRISCO SUNNY 64 60 87 CALM 29.80R FOG $$ NCZ095-097-098-100-101-251400- SOUTHERN COAST CITY SKY/WX TMP DP RH WIND PRES REMARKS BEAUFORT SUNNY 61 60 97 CALM 29.81R CEDAR ISLAND NOT AVBL JACKSONVILLE N/A 54 54 100 CALM 29.81R VSB 3/4 PINEY ISLAND SUNNY N/A N/A N/A CALM 29.80R WILMINGTON FOG 55 55 100 CALM 29.82R VSB 1 $$ NCZ011>013-027>030-043-044-078>080-089-090>093-098-251400- COASTAL PLAIN CITY SKY/WX TMP DP RH WIND PRES REMARKS AHOSKIE N/A 53 53 99 CALM 29.79S FOG CLINTON MOSUNNY 55 55 100 CALM 29.80S FOG ELIZABETHTOWN SUNNY 56 56 100 S3 29.79F GOLDSBORO SUNNY 57 57 100 SE3 29.77F FOG GREENVILLE FOG 54 54 100 CALM 29.82S VSB 1/4 HAVELOCK MOSUNNY 54 53 97 CALM 29.81S KENANSVILLE MOSUNNY 50 50 100 CALM 29.80F KINSTON SUNNY 54 54 100 CALM 29.81S FOG NEW BERN CLOUDY 54 54 100 CALM 29.82R FOG RICHLANDS FOG 52 52 100 CALM 29.81S VSB 3/4 ROCKY MOUNT MOSUNNY 57 57 100 S5 29.78S FOG WASHINGTON N/A 52 51 99 CALM 29.81R WHITEVILLE FOG 53 52 97 CALM 29.80S VSB 1/2 $$ AMZ130-135-150-152-154-156-158-170-250-252-270-ANZ085-086-088-633-658-670-251400- MARINE OBSERVATIONS STATION/POSITION TIME TEMP WIND PRES WAVE SWELL AIR SEA DIR/SP/G HT/PER HT/PER (UTC) (F) (DEG/KT/KT) (MB) (FT/S) (FT/S) CHESAPEAKE LIGHT NOT AVBL 64 E VA BEACH 1250 56 54 20/ 4/ 4 1008.3 7/11 7/11 DUCK 1236 58 49 CALM / 2 1008.3 2 E DUCK 1230 50 N/A 5/11 3/11 OREGON INLET 1248 40/ 2/ 3 N/A 13E OREGON INLT NOT AVBL HATTERAS CG 1236 62 63 330/ 2/ 3 1008.5 DIAMOND BUOY 1250 71 76 340/ 6/ 8 1008.8 8/11 8/11 CAPE LOOKOUT 1200 62 320/ 2/ 2 1008.5 BEAUFORT LAB 1236 61 62 360/ 3/ 4 1008.2 30 SE NEW RVR IN 1208 65 350/ 2/ 8 1008.9 30 SE NEW RVR IN 1243 69 N/A 7/11 3/11 27 SE WRIGHTSVLE 1208 64 65 310/ 4/ 8 1007.9 5 SE WRIGHTSVLE 1208 59 58 260/ 2/ 6 1009.0 225 S CAPE HAT 1150 69 70 310/ 4/ 6 1007.4 10/10 10/10 41 SE CHARLESTON 1150 69 70 230/ 8/ 12 1009.0 7/10 7/10 $$

USA.gov is the U.S. government's official web portal to all federal, state and local government web resources and services.